User: anonymous   Login
Location: Unspecified
(0.0000°N, 0.0000°E)
Time: 02:55:21
(UTC+00:00)
Language:

STARLINK-5760 - Orbit

View from above orbital plane
View from above orbital plane
View from above satellite
View from above satellite

Ground track
Ground track

The orbit is defined by the following mean orbital elements,

1 55591U          26144.87902176 +.00000000 +00000-0 +10202-3 0 00003
2 55591  43.0050 295.0408 0001570 280.3878  79.6797 15.27577391    08
Epoch (UTC): 24 May 2026 21:05:47
Eccentricity: 0.0001570
inclination: 43.0050°
perigee height: 482 km
apogee height: 484 km
right ascension of ascending node: 295.0408°
argument of perigee: 280.3878°
revolutions per day: 15.27577391
mean anomaly at epoch: 79.6797°

The dashed part of the orbit path shows where the satellite is in the earth's shadow,  

DLR